| time (UTC) | temp F | wind direction | speed MPH | gust MPH | rain 1hr in | rain 24hr in | rain mn in | humidity % | barometer mb |
| 20260502221548 | 58 | 335 | 7.0 | 18.0 | 0.00 | 0.00 | 0.00 | 42 | 1012.3 |
| 20260502221033 | 58 | 316 | 8.0 | 18.0 | 0.00 | 0.00 | 0.00 | 41 | 1012.4 |
| 20260502220535 | 58 | 28 | 7.0 | 15.0 | 0.00 | 0.00 | 0.00 | 42 | 1012.3 |
| 20260502220049 | 58 | 15 | 7.0 | 15.0 | 0.00 | 0.00 | 0.00 | 43 | 1012.4 |
| 20260502215533 | 58 | 30 | 7.0 | 14.0 | 0.00 | 0.00 | 0.00 | 42 | 1012.1 |
| 20260502215034 | 58 | 299 | 7.0 | 14.0 | 0.00 | 0.00 | 0.00 | 41 | 1012.0 |
| 20260502214552 | 58 | 341 | 4.0 | 19.0 | 0.00 | 0.00 | 0.00 | 43 | 1012.0 |
| 20260502214035 | 59 | 23 | 7.0 | 19.0 | 0.00 | 0.00 | 0.00 | 43 | 1011.9 |
| 20260502213536 | 59 | 356 | 8.0 | 17.0 | 0.00 | 0.00 | 0.00 | 39 | 1011.9 |
| 20260502213047 | 60 | 352 | 6.0 | 13.0 | 0.00 | 0.00 | 0.00 | 41 | 1011.7 |
| 20260502212534 | 60 | 288 | 6.0 | 13.0 | 0.00 | 0.00 | 0.00 | 42 | 1011.7 |
| 20260502212035 | 60 | 15 | 4.0 | 14.0 | 0.00 | 0.00 | 0.00 | 40 | 1011.5 |
| 20260502211556 | 60 | 332 | 5.0 | 15.0 | 0.00 | 0.00 | 0.00 | 42 | 1011.5 |
| 20260502211034 | 60 | 1 | 5.0 | 15.0 | 0.00 | 0.00 | 0.00 | 40 | 1011.3 |
| 20260502210533 | 60 | 56 | 4.0 | 11.0 | 0.00 | 0.00 | 0.00 | 42 | 1011.4 |
| 20260502210048 | 60 | 57 | 6.0 | 11.0 | 0.00 | 0.00 | 0.00 | 42 | 1011.2 |
| 20260502205533 | 60 | 32 | 5.0 | 10.0 | 0.00 | 0.00 | 0.00 | 45 | 1011.2 |
| 20260502205033 | 60 | 323 | 4.0 | 10.0 | 0.00 | 0.00 | 0.00 | 41 | 1011.2 |
| 20260502204539 | 60 | 39 | 4.0 | 14.0 | 0.00 | 0.00 | 0.00 | 43 | 1011.2 |
| 20260502204034 | 60 | 315 | 5.0 | 14.0 | 0.00 | 0.00 | 0.00 | 44 | 1011.3 |
| 20260502203533 | 60 | 39 | 6.0 | 12.0 | 0.00 | 0.00 | 0.00 | 41 | 1011.2 |
| 20260502203056 | 61 | 356 | 5.0 | 12.0 | 0.00 | 0.00 | 0.00 | 42 | 1011.2 |
| 20260502202534 | 61 | 7 | 3.0 | 8.0 | 0.00 | 0.00 | 0.00 | 42 | 1011.2 |
| 20260502202033 | 61 | 306 | 4.0 | 8.0 | 0.00 | 0.00 | 0.00 | 40 | 1011.5 |
| 20260502201547 | 61 | 34 | 5.0 | 8.0 | 0.00 | 0.00 | 0.00 | 42 | 1011.3 |
| 20260502201035 | 61 | 32 | 3.0 | 8.0 | 0.00 | 0.00 | 0.00 | 41 | 1011.2 |
| 20260502200534 | 61 | 33 | 2.0 | 6.0 | 0.00 | 0.00 | 0.00 | 39 | 1011.5 |
| 20260502200043 | 61 | 257 | 4.0 | 8.0 | 0.00 | 0.00 | 0.00 | 41 | 1011.5 |
| 20260502195535 | 61 | 327 | 4.0 | 11.0 | 0.00 | 0.00 | 0.00 | 41 | 1011.6 |
| 20260502195033 | 61 | 21 | 3.0 | 12.0 | 0.00 | 0.00 | 0.00 | 39 | 1011.6 |
| 20260502194541 | 61 | 38 | 5.0 | 12.0 | 0.00 | 0.00 | 0.00 | 40 | 1011.7 |
| 20260502194033 | 62 | 77 | 3.0 | 9.0 | 0.00 | 0.00 | 0.00 | 40 | 1011.7 |
| 20260502193535 | 62 | 307 | 2.0 | 9.0 | 0.00 | 0.00 | 0.00 | 40 | 1011.9 |
| 20260502193041 | 61 | 82 | 2.0 | 8.0 | 0.00 | 0.00 | 0.00 | 46 | 1011.8 |
| 20260502192534 | 60 | 0 | 3.0 | 9.0 | 0.00 | 0.00 | 0.00 | 39 | 1011.9 |
| 20260502192033 | 60 | 324 | 4.0 | 9.0 | 0.00 | 0.00 | 0.00 | 39 | 1011.9 |
| 20260502191547 | 60 | 41 | 2.0 | 9.0 | 0.00 | 0.00 | 0.00 | 40 | 1011.9 |
| 20260502191033 | 60 | 0 | 1.0 | 11.0 | 0.00 | 0.00 | 0.00 | 42 | 1011.8 |
| 20260502190534 | 60 | 290 | 3.0 | 11.0 | 0.00 | 0.00 | 0.00 | 41 | 1011.8 |
| 20260502190046 | 60 | 127 | 1.0 | 8.0 | 0.00 | 0.00 | 0.00 | 41 | 1012.0 |
| 20260502185534 | 60 | 115 | 3.0 | 11.0 | 0.00 | 0.00 | 0.00 | 39 | 1012.1 |
| 20260502185034 | 61 | 28 | 3.0 | 13.0 | 0.00 | 0.00 | 0.00 | 44 | 1012.1 |
| 20260502184542 | 61 | 25 | 6.0 | 13.0 | 0.00 | 0.00 | 0.00 | 45 | 1012.1 |
| 20260502184034 | 61 | 288 | 6.0 | 13.0 | 0.00 | 0.00 | 0.00 | 42 | 1012.2 |
| 20260502183535 | 60 | 306 | 5.0 | 13.0 | 0.00 | 0.00 | 0.00 | 43 | 1012.1 |
| 20260502183042 | 60 | 47 | 6.0 | 12.0 | 0.00 | 0.00 | 0.00 | 41 | 1012.1 |
| 20260502182535 | 60 | 2 | 5.0 | 14.0 | 0.00 | 0.00 | 0.00 | 41 | 1012.3 |
| 20260502182033 | 60 | 35 | 6.0 | 14.0 | 0.00 | 0.00 | 0.00 | 41 | 1012.7 |
| 20260502181546 | 60 | 46 | 4.0 | 12.0 | 0.00 | 0.00 | 0.00 | 40 | 1012.8 |
| 20260502181037 | 59 | 359 | 6.0 | 12.0 | 0.00 | 0.00 | 0.00 | 42 | 1012.7 |
| 20260502180533 | 59 | 33 | 6.0 | 11.0 | 0.00 | 0.00 | 0.00 | 40 | 1012.7 |
| 20260502164033 | 55 | 150 | 2.0 | 8.0 | 0.00 | 0.00 | 0.00 | 52 | 1014.2 |
| 20260502163533 | 55 | 140 | 2.0 | 8.0 | 0.00 | 0.00 | 0.00 | 47 | 1014.3 |
| 20260502163107 | 55 | 349 | 2.0 | 8.0 | 0.00 | 0.00 | 0.00 | 49 | 1014.3 |
| 20260502162534 | 54 | 77 | 4.0 | 12.0 | 0.00 | 0.00 | 0.00 | 48 | 1014.4 |
| 20260502162034 | 54 | 10 | 3.0 | 12.0 | 0.00 | 0.00 | 0.00 | 49 | 1014.5 |
| 20260502161551 | 54 | 317 | 2.0 | 8.0 | 0.00 | 0.00 | 0.00 | 50 | 1014.7 |
| 20260502161035 | 53 | 336 | 4.0 | 8.0 | 0.00 | 0.00 | 0.00 | 50 | 1014.6 |
| 20260502160533 | 53 | 29 | 5.0 | 12.0 | 0.00 | 0.00 | 0.00 | 52 | 1014.7 |
| 20260502152033 | 51 | 211 | 1.0 | 6.0 | 0.00 | 0.00 | 0.00 | 55 | 1015.0 |
| 20260502151544 | 51 | 290 | 1.0 | 6.0 | 0.00 | 0.00 | 0.00 | 58 | 1015.0 |
| 20260502151033 | 51 | 4 | 4.0 | 6.0 | 0.00 | 0.00 | 0.00 | 55 | 1014.8 |
| 20260502150533 | 51 | 57 | 1.0 | 6.0 | 0.00 | 0.00 | 0.00 | 56 | 1014.9 |
| 20260502130537 | 50 | 0 | 3.0 | 8.0 | 0.00 | 0.00 | 0.00 | 54 | 1014.7 |
| 20260502123533 | 50 | 123 | 0.0 | 5.0 | 0.00 | 0.00 | 0.00 | 53 | 1014.2 |
| 20260502123047 | 50 | 96 | 1.0 | 7.0 | 0.00 | 0.00 | 0.00 | 53 | 1014.0 |
| 20260502122533 | 50 | 98 | 2.0 | 7.0 | 0.00 | 0.00 | 0.00 | 53 | 1014.0 |
| 20260502122034 | 50 | 0 | 0.0 | 2.0 | 0.00 | 0.00 | 0.00 | 52 | 1013.9 |
| 20260502121544 | 50 | 0 | 1.0 | 2.0 | 0.00 | 0.00 | 0.00 | 53 | 1014.1 |
| 20260502121034 | 50 | 0 | 0.0 | 0.0 | 0.00 | 0.00 | 0.00 | 56 | 1014.4 |
| 20260502120536 | 50 | 0 | 0.0 | 0.0 | 0.00 | 0.00 | 0.00 | 63 | 1014.2 |
| 20260502115533 | 50 | 0 | 0.0 | 2.0 | 0.00 | 0.00 | 0.00 | 60 | 1014.0 |
| 20260502115033 | 50 | 156 | 1.0 | 2.0 | 0.00 | 0.00 | 0.00 | 64 | 1014.1 |
| 20260502114603 | 50 | 147 | 0.0 | 2.0 | 0.00 | 0.00 | 0.00 | 56 | 1014.2 |
| 20260502114034 | 50 | 0 | 0.0 | 3.0 | 0.00 | 0.00 | 0.00 | 58 | 1014.0 |
| 20260502113536 | 50 | 0 | 0.0 | 6.0 | 0.00 | 0.00 | 0.00 | 57 | 1013.9 |
| 20260502113046 | 50 | 357 | 2.0 | 6.0 | 0.00 | 0.00 | 0.00 | 50 | 1013.9 |
| 20260502112535 | 49 | 109 | 2.0 | 5.0 | 0.00 | 0.00 | 0.00 | 52 | 1013.7 |
| 20260502112033 | 49 | 0 | 0.0 | 2.0 | 0.00 | 0.00 | 0.00 | 64 | 1013.7 |
| 20260502111542 | 50 | 165 | 1.0 | 4.0 | 0.00 | 0.00 | 0.00 | 72 | 1013.5 |
| 20260502111034 | 50 | 123 | 1.0 | 4.0 | 0.00 | 0.00 | 0.00 | 54 | 1013.7 |
| 20260502110536 | 49 | 91 | 0.0 | 2.0 | 0.00 | 0.00 | 0.00 | 64 | 1013.7 |
| 20260502110041 | 49 | 0 | 0.0 | 2.0 | 0.00 | 0.00 | 0.00 | 70 | 1013.7 |
| 20260502105534 | 50 | 139 | 0.0 | 2.0 | 0.00 | 0.00 | 0.00 | 69 | 1013.5 |
| 20260502105033 | 50 | 96 | 0.0 | 2.0 | 0.00 | 0.00 | 0.00 | 65 | 1013.2 |
| 20260502104541 | 50 | 95 | 0.0 | 2.0 | 0.00 | 0.00 | 0.00 | 63 | 1013.3 |
| 20260502104035 | 50 | 0 | 0.0 | 2.0 | 0.00 | 0.00 | 0.00 | 66 | 1013.4 |
| 20260502103536 | 50 | 153 | 1.0 | 3.0 | 0.00 | 0.00 | 0.00 | 66 | 1013.1 |
| 20260502103040 | 50 | 135 | 2.0 | 3.0 | 0.00 | 0.00 | 0.00 | 66 | 1013.4 |
| 20260502102533 | 51 | 0 | 0.0 | 3.0 | 0.00 | 0.00 | 0.00 | 59 | 1013.4 |
| 20260502102034 | 51 | 0 | 0.0 | 4.0 | 0.00 | 0.00 | 0.00 | 65 | 1013.3 |
| 20260502101600 | 51 | 8 | 1.0 | 5.0 | 0.00 | 0.00 | 0.00 | 57 | 1013.5 |
| 20260502101035 | 51 | 42 | 2.0 | 5.0 | 0.00 | 0.00 | 0.00 | 59 | 1013.4 |
| 20260502100533 | 52 | 288 | 2.0 | 11.0 | 0.00 | 0.00 | 0.00 | 59 | 1013.4 |
| 20260502100104 | 52 | 350 | 2.0 | 11.0 | 0.00 | 0.00 | 0.00 | 60 | 1013.4 |
| 20260502091033 | 51 | 0 | 0.0 | 3.0 | 0.00 | 0.00 | 0.00 | 73 | 1013.3 |
| 20260502090533 | 52 | 0 | 0.0 | 3.0 | 0.00 | 0.00 | 0.00 | 68 | 1013.5 |
| 20260502071034 | 54 | 359 | 4.0 | 8.0 | 0.00 | 0.00 | 0.00 | 65 | 1012.2 |
| 20260502070533 | 53 | 313 | 2.0 | 5.0 | 0.00 | 0.00 | 0.00 | 66 | 1012.5 |
| 20260502070047 | 53 | 0 | 0.0 | 6.0 | 0.00 | 0.00 | 0.00 | 68 | 1012.6 |
| 20260502065534 | 54 | 331 | 1.0 | 8.0 | 0.00 | 0.00 | 0.00 | 66 | 1012.7 |
| 20260502065034 | 54 | 303 | 3.0 | 8.0 | 0.00 | 0.00 | 0.00 | 66 | 1012.7 |
| 20260502064611 | 54 | 3 | 5.0 | 8.0 | 0.00 | 0.00 | 0.00 | 66 | 1012.7 |
| 20260502064033 | 54 | 317 | 3.0 | 8.0 | 0.00 | 0.00 | 0.00 | 67 | 1012.7 |
| 20260502063534 | 54 | 314 | 3.0 | 8.0 | 0.00 | 0.00 | 0.00 | 67 | 1012.7 |
| 20260502063052 | 54 | 337 | 4.0 | 8.0 | 0.00 | 0.00 | 0.00 | 67 | 1012.8 |
| 20260502062534 | 54 | 293 | 4.0 | 8.0 | 0.00 | 0.00 | 0.00 | 67 | 1012.9 |
| 20260502062036 | 54 | 293 | 3.0 | 8.0 | 0.00 | 0.00 | 0.00 | 67 | 1012.9 |
| 20260502061546 | 54 | 326 | 2.0 | 7.0 | 0.00 | 0.00 | 0.00 | 67 | 1013.0 |
| 20260502061033 | 54 | 290 | 2.0 | 6.0 | 0.00 | 0.00 | 0.00 | 69 | 1012.9 |
| 20260502060535 | 54 | 285 | 2.0 | 4.0 | 0.00 | 0.00 | 0.00 | 69 | 1013.1 |
| 20260502060046 | 54 | 286 | 1.0 | 5.0 | 0.00 | 0.00 | 0.00 | 70 | 1013.1 |
| 20260502055533 | 54 | 326 | 2.0 | 5.0 | 0.00 | 0.00 | 0.00 | 69 | 1013.0 |
| 20260502055032 | 54 | 311 | 2.0 | 5.0 | 0.00 | 0.00 | 0.00 | 70 | 1013.0 |
| 20260502054548 | 54 | 280 | 2.0 | 5.0 | 0.00 | 0.00 | 0.00 | 70 | 1013.1 |
| 20260502054034 | 54 | 308 | 1.0 | 3.0 | 0.00 | 0.00 | 0.00 | 70 | 1013.1 |
| 20260502053533 | 54 | 19 | 0.0 | 2.0 | 0.00 | 0.00 | 0.00 | 71 | 1013.1 |
| 20260502053049 | 54 | 0 | 0.0 | 4.0 | 0.00 | 0.00 | 0.00 | 70 | 1013.1 |
| 20260502052537 | 54 | 0 | 0.0 | 4.0 | 0.00 | 0.00 | 0.00 | 70 | 1013.1 |
| 20260502052034 | 54 | 287 | 3.0 | 4.0 | 0.00 | 0.00 | 0.00 | 71 | 1013.1 |
| 20260502051603 | 54 | 274 | 1.0 | 4.0 | 0.00 | 0.00 | 0.00 | 72 | 1013.0 |
| 20260502051033 | 54 | 287 | 1.0 | 5.0 | 0.00 | 0.00 | 0.00 | 73 | 1013.0 |
| 20260502050534 | 54 | 333 | 1.0 | 5.0 | 0.00 | 0.00 | 0.00 | 73 | 1013.1 |
| 20260502050049 | 54 | 48 | 2.0 | 5.0 | 0.00 | 0.00 | 0.00 | 75 | 1013.2 |
| 20260502045537 | 53 | 323 | 1.0 | 3.0 | 0.00 | 0.00 | 0.00 | 77 | 1013.2 |
| 20260502045035 | 53 | 320 | 1.0 | 2.0 | 0.00 | 0.00 | 0.00 | 79 | 1013.1 |
| 20260502044543 | 53 | 18 | 1.0 | 2.0 | 0.00 | 0.00 | 0.00 | 80 | 1013.2 |
| 20260502044034 | 53 | 288 | 0.0 | 1.0 | 0.00 | 0.00 | 0.00 | 81 | 1013.4 |
| 20260502043534 | 54 | 302 | 0.0 | 1.0 | 0.00 | 0.00 | 0.00 | 80 | 1013.2 |
| 20260502043117 | 54 | 0 | 0.0 | 1.0 | 0.00 | 0.00 | 0.00 | 80 | 1013.4 |
| 20260502042534 | 54 | 0 | 0.0 | 2.0 | 0.00 | 0.00 | 0.00 | 79 | 1013.2 |
| 20260502042034 | 54 | 357 | 1.0 | 2.0 | 0.00 | 0.00 | 0.00 | 79 | 1013.2 |
| 20260502041553 | 54 | 0 | 0.0 | 5.0 | 0.00 | 0.00 | 0.00 | 79 | 1013.4 |
| 20260502041038 | 54 | 0 | 0.0 | 5.0 | 0.00 | 0.00 | 0.00 | 79 | 1013.3 |
| 20260502040534 | 54 | 297 | 2.0 | 7.0 | 0.00 | 0.00 | 0.00 | 79 | 1013.3 |
| 20260502040045 | 54 | 300 | 4.0 | 7.0 | 0.00 | 0.00 | 0.00 | 79 | 1013.3 |
| 20260502035535 | 54 | 355 | 3.0 | 5.0 | 0.00 | 0.00 | 0.00 | 80 | 1013.4 |
| 20260502035035 | 54 | 299 | 1.0 | 3.0 | 0.00 | 0.00 | 0.00 | 81 | 1013.4 |
| 20260502034541 | 54 | 292 | 1.0 | 2.0 | 0.00 | 0.00 | 0.00 | 80 | 1013.4 |
| 20260502034034 | 54 | 278 | 1.0 | 2.0 | 0.00 | 0.00 | 0.00 | 80 | 1013.3 |
| 20260502033534 | 54 | 0 | 0.0 | 2.0 | 0.00 | 0.00 | 0.00 | 80 | 1013.3 |
| 20260502033047 | 54 | 295 | 1.0 | 3.0 | 0.00 | 0.00 | 0.00 | 79 | 1013.2 |
| 20260502032535 | 54 | 303 | 1.0 | 4.0 | 0.00 | 0.00 | 0.00 | 78 | 1013.2 |
| 20260502032034 | 54 | 283 | 0.0 | 4.0 | 0.00 | 0.00 | 0.00 | 78 | 1013.1 |
| 20260502031540 | 55 | 342 | 1.0 | 2.0 | 0.00 | 0.00 | 0.00 | 78 | 1013.2 |
| 20260502031033 | 55 | 0 | 0.0 | 0.0 | 0.00 | 0.00 | 0.00 | 77 | 1013.2 |
| 20260502030534 | 55 | 0 | 0.0 | 1.0 | 0.00 | 0.00 | 0.00 | 77 | 1013.2 |
| 20260502030050 | 55 | 0 | 0.0 | 1.0 | 0.00 | 0.00 | 0.00 | 77 | 1013.1 |
| 20260502025533 | 55 | 295 | 0.0 | 3.0 | 0.00 | 0.00 | 0.00 | 77 | 1013.1 |
| 20260502025036 | 55 | 296 | 1.0 | 3.0 | 0.00 | 0.00 | 0.00 | 77 | 1013.1 |
| 20260502024547 | 55 | 300 | 2.0 | 3.0 | 0.00 | 0.00 | 0.00 | 77 | 1013.1 |
| 20260502024039 | 55 | 285 | 0.0 | 2.0 | 0.00 | 0.00 | 0.00 | 77 | 1013.1 |
| 20260502023533 | 55 | 288 | 1.0 | 2.0 | 0.00 | 0.00 | 0.00 | 77 | 1013.2 |
| 20260502023044 | 55 | 332 | 0.0 | 0.0 | 0.00 | 0.00 | 0.00 | 76 | 1013.1 |
| 20260502022536 | 55 | 0 | 0.0 | 0.0 | 0.00 | 0.00 | 0.00 | 77 | 1013.1 |
| 20260502022033 | 55 | 0 | 0.0 | 1.0 | 0.00 | 0.00 | 0.00 | 76 | 1013.1 |
| 20260502021547 | 56 | 0 | 0.0 | 1.0 | 0.00 | 0.00 | 0.00 | 76 | 1013.1 |
| 20260502021033 | 56 | 260 | 0.0 | 1.0 | 0.00 | 0.00 | 0.00 | 75 | 1012.9 |
| 20260502020537 | 56 | 0 | 0.0 | 2.0 | 0.00 | 0.00 | 0.00 | 75 | 1012.8 |
| 20260502020040 | 55 | 278 | 1.0 | 2.0 | 0.00 | 0.00 | 0.00 | 75 | 1012.8 |
| 20260502015534 | 55 | 278 | 0.0 | 2.0 | 0.00 | 0.00 | 0.00 | 76 | 1012.6 |
| 20260502015034 | 55 | 281 | 1.0 | 2.0 | 0.00 | 0.00 | 0.00 | 76 | 1012.7 |
| 20260502014546 | 56 | 277 | 0.0 | 1.0 | 0.00 | 0.00 | 0.00 | 75 | 1012.5 |
| 20260502014033 | 55 | 0 | 0.0 | 2.0 | 0.00 | 0.00 | 0.00 | 76 | 1012.7 |
| 20260502013533 | 55 | 0 | 0.0 | 2.0 | 0.00 | 0.00 | 0.00 | 76 | 1012.5 |
| 20260502013051 | 55 | 0 | 0.0 | 2.0 | 0.00 | 0.00 | 0.00 | 76 | 1012.4 |
| 20260502012533 | 55 | 284 | 0.0 | 2.0 | 0.00 | 0.00 | 0.00 | 77 | 1012.5 |
| 20260502012033 | 55 | 288 | 1.0 | 2.0 | 0.00 | 0.00 | 0.00 | 78 | 1012.7 |
| 20260502011542 | 55 | 0 | 0.0 | 2.0 | 0.00 | 0.00 | 0.00 | 78 | 1012.6 |
| 20260502011032 | 55 | 0 | 0.0 | 1.0 | 0.00 | 0.00 | 0.00 | 78 | 1012.5 |
| 20260502010533 | 55 | 0 | 0.0 | 0.0 | 0.00 | 0.00 | 0.00 | 77 | 1012.4 |
| 20260502010044 | 55 | 0 | 0.0 | 0.0 | 0.00 | 0.00 | 0.00 | 77 | 1012.4 |
| 20260502005534 | 55 | 0 | 0.0 | 0.0 | 0.00 | 0.00 | 0.00 | 77 | 1012.2 |
| 20260502005034 | 55 | 0 | 0.0 | 0.0 | 0.00 | 0.00 | 0.00 | 77 | 1012.1 |
| 20260502004546 | 55 | 0 | 0.0 | 0.0 | 0.00 | 0.00 | 0.00 | 77 | 1011.9 |
| 20260502004034 | 56 | 0 | 0.0 | 0.0 | 0.00 | 0.00 | 0.00 | 75 | 1011.8 |
| 20260502003532 | 56 | 0 | 0.0 | 0.0 | 0.00 | 0.00 | 0.00 | 75 | 1011.7 |
| 20260502003043 | 57 | 0 | 0.0 | 0.0 | 0.00 | 0.00 | 0.00 | 72 | 1011.8 |
| 20260502002533 | 57 | 0 | 0.0 | 0.0 | 0.00 | 0.00 | 0.00 | 72 | 1011.9 |
| 20260502002034 | 58 | 0 | 0.0 | 0.0 | 0.00 | 0.00 | 0.00 | 72 | 1011.8 |
| 20260502001544 | 58 | 0 | 0.0 | 0.0 | 0.00 | 0.00 | 0.00 | 70 | 1011.7 |
| 20260502001033 | 58 | 0 | 0.0 | 0.0 | 0.00 | 0.00 | 0.00 | 68 | 1011.6 |
| 20260502000533 | 59 | 0 | 0.0 | 0.0 | 0.00 | 0.00 | 0.00 | 66 | 1011.5 |
| 20260502000047 | 60 | 0 | 0.0 | 0.0 | 0.00 | 0.00 | 0.00 | 64 | 1011.4 |
| 20260501235533 | 60 | 0 | 0.0 | 0.0 | 0.00 | 0.00 | 0.00 | 63 | 1011.2 |
| 20260501235034 | 60 | 0 | 0.0 | 0.0 | 0.00 | 0.00 | 0.00 | 62 | 1011.1 |
| 20260501234543 | 61 | 0 | 0.0 | 0.0 | 0.00 | 0.00 | 0.00 | 62 | 1011.1 |
| 20260501234034 | 61 | 0 | 0.0 | 0.0 | 0.00 | 0.00 | 0.00 | 62 | 1011.0 |
| 20260501233534 | 62 | 0 | 0.0 | 0.0 | 0.00 | 0.00 | 0.00 | 62 | 1011.0 |
| 20260501233102 | 62 | 0 | 0.0 | 0.0 | 0.00 | 0.00 | 0.00 | 61 | 1011.2 |
| 20260501232534 | 62 | 0 | 0.0 | 0.0 | 0.00 | 0.00 | 0.00 | 61 | 1011.2 |
| 20260501232038 | 62 | 0 | 0.0 | 0.0 | 0.00 | 0.00 | 0.00 | 61 | 1011.2 |
| 20260501231547 | 62 | 0 | 0.0 | 0.0 | 0.00 | 0.00 | 0.00 | 59 | 1011.2 |
| 20260501231033 | 63 | 0 | 0.0 | 0.0 | 0.00 | 0.00 | 0.00 | 58 | 1011.3 |
| 20260501230533 | 63 | 0 | 0.0 | 0.0 | 0.00 | 0.00 | 0.00 | 57 | 1011.4 |
| 20260501230050 | 63 | 0 | 0.0 | 2.0 | 0.00 | 0.00 | 0.00 | 57 | 1011.3 |
| 20260501225536 | 64 | 0 | 0.0 | 2.0 | 0.00 | 0.00 | 0.00 | 55 | 1011.1 |
| 20260501225035 | 64 | 240 | 0.0 | 2.0 | 0.00 | 0.00 | 0.00 | 55 | 1011.2 |
| 20260501224544 | 65 | 0 | 0.0 | 4.0 | 0.00 | 0.00 | 0.00 | 54 | 1011.2 |
| 20260501224034 | 65 | 250 | 0.0 | 4.0 | 0.00 | 0.00 | 0.00 | 53 | 1011.4 |
| 20260501223535 | 65 | 0 | 0.0 | 5.0 | 0.00 | 0.00 | 0.00 | 53 | 1011.4 |
| 20260501223054 | 65 | 139 | 1.0 | 5.0 | 0.00 | 0.00 | 0.00 | 52 | 1011.4 |
| 20260501222535 | 66 | 106 | 0.0 | 1.0 | 0.00 | 0.00 | 0.00 | 53 | 1011.4 |
| 20260501222033 | 66 | 0 | 0.0 | 1.0 | 0.00 | 0.00 | 0.00 | 53 | 1011.4 |